| time (UTC) | temp F | wind direction | speed MPH | gust MPH | rain 1hr in | rain 24hr in | rain mn in | humidity % | barometer mb |
| 20260905164530 | 69 | 180 | 0.0 | 3.0 | 0.00 | 0.00 | 0.00 | 52 | 1012.3 |
| 20260905163024 | 67 | 63 | 0.0 | 0.0 | 0.00 | 0.00 | 0.00 | 56 | 1012.3 |
| 20260905161517 | 67 | 83 | 0.0 | 3.0 | 0.00 | 0.00 | 0.00 | 56 | 1012.3 |
| 20260905160015 | 65 | 93 | 0.0 | 3.0 | 0.00 | 0.00 | 0.00 | 60 | 1012.4 |
| 20260905154510 | 63 | 82 | 0.0 | 1.0 | 0.00 | 0.00 | 0.00 | 64 | 1012.3 |
| 20260905153004 | 59 | 122 | 0.0 | 0.0 | 0.00 | 0.00 | 0.00 | 74 | 1012.3 |
| 20260905151600 | 57 | 204 | 0.0 | 0.0 | 0.00 | 0.00 | 0.00 | 79 | 1012.2 |
| 20260905144551 | 53 | 206 | 0.0 | 0.0 | 0.00 | 0.00 | 0.00 | 85 | 1012.1 |
| 20260905143047 | 52 | 186 | 0.0 | 0.0 | 0.00 | 0.00 | 0.00 | 86 | 1011.9 |
| 20260905141542 | 51 | 165 | 0.0 | 0.0 | 0.00 | 0.00 | 0.00 | 86 | 1011.7 |
| 20260905140039 | 51 | 165 | 0.0 | 0.0 | 0.00 | 0.00 | 0.00 | 85 | 1011.7 |
| 20260905134536 | 51 | 165 | 0.0 | 0.0 | 0.00 | 0.00 | 0.00 | 85 | 1011.6 |
| 20260905133038 | 51 | 221 | 0.0 | 0.0 | 0.00 | 0.00 | 0.00 | 85 | 1011.6 |
| 20260905131534 | 52 | 221 | 0.0 | 0.0 | 0.00 | 0.00 | 0.00 | 85 | 1011.4 |
| 20260905130032 | 52 | 221 | 0.0 | 0.0 | 0.00 | 0.00 | 0.00 | 85 | 1011.4 |
| 20260905124530 | 52 | 221 | 0.0 | 0.0 | 0.00 | 0.00 | 0.00 | 85 | 1011.4 |
| 20260905123028 | 53 | 221 | 0.0 | 0.0 | 0.00 | 0.00 | 0.00 | 85 | 1011.4 |
| 20260905121528 | 53 | 221 | 0.0 | 0.0 | 0.00 | 0.00 | 0.00 | 85 | 1011.4 |
| 20260905120026 | 54 | 221 | 0.0 | 0.0 | 0.00 | 0.00 | 0.00 | 85 | 1011.4 |
| 20260905114525 | 54 | 221 | 0.0 | 0.0 | 0.00 | 0.00 | 0.00 | 85 | 1011.4 |
| 20260905113023 | 54 | 221 | 0.0 | 0.0 | 0.00 | 0.00 | 0.00 | 85 | 1011.3 |
| 20260905111522 | 55 | 221 | 0.0 | 0.0 | 0.00 | 0.00 | 0.00 | 84 | 1011.4 |
| 20260905110020 | 55 | 221 | 0.0 | 0.0 | 0.00 | 0.00 | 0.00 | 85 | 1011.4 |
| 20260905104517 | 56 | 221 | 0.0 | 0.0 | 0.00 | 0.00 | 0.00 | 84 | 1011.3 |
| 20260905103018 | 56 | 221 | 0.0 | 0.0 | 0.00 | 0.00 | 0.00 | 84 | 1011.3 |
| 20260905101515 | 56 | 221 | 0.0 | 0.0 | 0.00 | 0.00 | 0.00 | 84 | 1011.4 |
| 20260905100028 | 57 | 221 | 0.0 | 0.0 | 0.00 | 0.00 | 0.00 | 84 | 1011.5 |
| 20260905094515 | 57 | 221 | 0.0 | 0.0 | 0.00 | 0.00 | 0.00 | 83 | 1011.5 |
| 20260905093010 | 57 | 221 | 0.0 | 0.0 | 0.00 | 0.00 | 0.00 | 84 | 1011.6 |
| 20260905091511 | 57 | 221 | 0.0 | 0.0 | 0.00 | 0.00 | 0.00 | 83 | 1011.6 |
| 20260905090010 | 58 | 221 | 0.0 | 0.0 | 0.00 | 0.00 | 0.00 | 83 | 1011.6 |
| 20260905084506 | 58 | 221 | 0.0 | 0.0 | 0.00 | 0.00 | 0.00 | 83 | 1011.6 |
| 20260905083006 | 58 | 221 | 0.0 | 0.0 | 0.00 | 0.00 | 0.00 | 83 | 1011.7 |
| 20260905081503 | 58 | 221 | 0.0 | 0.0 | 0.00 | 0.00 | 0.00 | 82 | 1011.8 |
| 20260905080002 | 59 | 221 | 0.0 | 0.0 | 0.00 | 0.00 | 0.00 | 82 | 1011.9 |
| 20260905074600 | 59 | 221 | 0.0 | 0.0 | 0.00 | 0.00 | 0.00 | 82 | 1012.0 |
| 20260905073100 | 59 | 221 | 0.0 | 0.0 | 0.00 | 0.00 | 0.00 | 82 | 1012.0 |
| 20260905071601 | 60 | 211 | 0.0 | 0.0 | 0.00 | 0.00 | 0.00 | 82 | 1012.0 |
| 20260905070058 | 60 | 260 | 0.0 | 0.0 | 0.00 | 0.00 | 0.00 | 83 | 1011.8 |
| 20260905064613 | 60 | 260 | 0.0 | 0.0 | 0.00 | 0.00 | 0.00 | 83 | 1011.5 |
| 20260905063055 | 60 | 290 | 0.0 | 0.0 | 0.00 | 0.00 | 0.00 | 83 | 1011.7 |
| 20260905061603 | 60 | 290 | 0.0 | 0.0 | 0.00 | 0.00 | 0.00 | 82 | 1011.7 |
| 20260905060053 | 60 | 250 | 0.0 | 0.0 | 0.00 | 0.00 | 0.00 | 82 | 1011.8 |
| 20260905054651 | 61 | 250 | 0.0 | 0.0 | 0.00 | 0.00 | 0.00 | 82 | 1011.7 |
| 20260905053052 | 61 | 218 | 0.0 | 2.0 | 0.00 | 0.00 | 0.00 | 82 | 1011.6 |
| 20260905051552 | 61 | 15 | 0.0 | 0.0 | 0.00 | 0.00 | 0.00 | 80 | 1011.7 |
| 20260905050051 | 62 | 15 | 0.0 | 0.0 | 0.00 | 0.00 | 0.00 | 79 | 1011.7 |
| 20260905044603 | 63 | 15 | 0.0 | 0.0 | 0.00 | 0.00 | 0.00 | 79 | 1011.7 |
| 20260905043052 | 63 | 15 | 0.0 | 0.0 | 0.00 | 0.00 | 0.00 | 79 | 1011.6 |
| 20260905041550 | 63 | 15 | 0.0 | 0.0 | 0.00 | 0.00 | 0.00 | 78 | 1011.5 |
| 20260905040059 | 64 | 11 | 0.0 | 0.0 | 0.00 | 0.00 | 0.00 | 77 | 1011.3 |
| 20260905034600 | 64 | 355 | 0.0 | 0.0 | 0.00 | 0.00 | 0.00 | 76 | 1011.1 |
| 20260905033049 | 65 | 59 | 0.0 | 0.0 | 0.00 | 0.00 | 0.00 | 75 | 1010.7 |
| 20260905031550 | 66 | 107 | 0.0 | 0.0 | 0.00 | 0.00 | 0.00 | 74 | 1010.5 |
| 20260905030047 | 66 | 107 | 0.0 | 0.0 | 0.00 | 0.00 | 0.00 | 72 | 1010.5 |
| 20260905024557 | 66 | 140 | 1.0 | 4.0 | 0.00 | 0.00 | 0.00 | 71 | 1010.5 |
| 20260905023046 | 67 | 234 | 0.0 | 5.0 | 0.00 | 0.00 | 0.00 | 69 | 1010.3 |
| 20260905021546 | 67 | 238 | 0.0 | 0.0 | 0.00 | 0.00 | 0.00 | 70 | 1010.3 |
| 20260905020053 | 67 | 260 | 0.0 | 5.0 | 0.00 | 0.00 | 0.00 | 68 | 1010.2 |
| 20260905014545 | 68 | 219 | 0.0 | 4.0 | 0.00 | 0.00 | 0.00 | 69 | 1010.1 |
| 20260905013045 | 69 | 228 | 0.0 | 6.0 | 0.00 | 0.00 | 0.00 | 69 | 1010.1 |
| 20260905011544 | 70 | 261 | 1.0 | 8.0 | 0.00 | 0.00 | 0.00 | 68 | 1010.1 |
| 20260905010049 | 71 | 232 | 0.0 | 7.0 | 0.00 | 0.00 | 0.00 | 66 | 1010.1 |
| 20260905004542 | 71 | 261 | 0.0 | 6.0 | 0.00 | 0.00 | 0.00 | 64 | 1010.1 |
| 20260905003043 | 72 | 266 | 2.0 | 6.0 | 0.00 | 0.00 | 0.00 | 63 | 1010.0 |
| 20260905001543 | 73 | 255 | 2.0 | 10.0 | 0.00 | 0.00 | 0.00 | 62 | 1010.0 |
| 20260905000042 | 73 | 280 | 1.0 | 8.0 | 0.00 | 0.00 | 0.00 | 60 | 1009.9 |
| 20260904234540 | 74 | 267 | 1.0 | 10.0 | 0.00 | 0.00 | 0.00 | 59 | 1009.8 |
| 20260904233039 | 75 | 242 | 1.0 | 7.0 | 0.00 | 0.00 | 0.00 | 58 | 1009.8 |
| 20260904231554 | 75 | 237 | 3.0 | 12.0 | 0.00 | 0.00 | 0.00 | 57 | 1009.9 |
| 20260904230037 | 76 | 206 | 1.0 | 11.0 | 0.00 | 0.00 | 0.00 | 56 | 1009.9 |
| 20260904224536 | 77 | 154 | 0.0 | 10.0 | 0.00 | 0.00 | 0.00 | 56 | 1010.1 |
| 20260904223034 | 78 | 226 | 0.0 | 5.0 | 0.00 | 0.00 | 0.00 | 52 | 1010.1 |
| 20260904221537 | 79 | 182 | 2.0 | 8.0 | 0.00 | 0.00 | 0.00 | 52 | 1010.0 |
| 20260904220032 | 78 | 236 | 1.0 | 7.0 | 0.00 | 0.00 | 0.00 | 53 | 1010.2 |
| 20260904214531 | 78 | 220 | 2.0 | 12.0 | 0.00 | 0.00 | 0.00 | 53 | 1010.2 |
| 20260904213030 | 80 | 196 | 0.0 | 6.0 | 0.00 | 0.00 | 0.00 | 52 | 1010.3 |
| 20260904211529 | 80 | 179 | 0.0 | 5.0 | 0.00 | 0.00 | 0.00 | 51 | 1010.4 |
| 20260904210034 | 80 | 210 | 2.0 | 8.0 | 0.00 | 0.00 | 0.00 | 50 | 1010.4 |
| 20260904204528 | 81 | 228 | 0.0 | 6.0 | 0.00 | 0.00 | 0.00 | 49 | 1010.4 |
| 20260904203024 | 80 | 205 | 0.0 | 5.0 | 0.00 | 0.00 | 0.00 | 50 | 1010.4 |
| 20260904201522 | 79 | 215 | 0.0 | 3.0 | 0.00 | 0.00 | 0.00 | 51 | 1010.6 |
| 20260904200019 | 77 | 100 | 0.0 | 3.0 | 0.00 | 0.00 | 0.00 | 54 | 1010.6 |
| 20260904194514 | 76 | 38 | 0.0 | 1.0 | 0.00 | 0.00 | 0.00 | 55 | 1010.8 |
| 20260904193012 | 75 | 221 | 0.0 | 3.0 | 0.00 | 0.00 | 0.00 | 56 | 1011.0 |
| 20260904191509 | 74 | 229 | 0.0 | 3.0 | 0.00 | 0.00 | 0.00 | 58 | 1011.2 |
| 20260904190008 | 74 | 53 | 0.0 | 1.0 | 0.00 | 0.00 | 0.00 | 60 | 1011.4 |
| 20260904184507 | 73 | 123 | 0.0 | 3.0 | 0.00 | 0.00 | 0.00 | 62 | 1011.4 |
| 20260904183005 | 73 | 72 | 0.0 | 4.0 | 0.00 | 0.00 | 0.00 | 64 | 1011.5 |
| 20260904181504 | 73 | 215 | 0.0 | 0.0 | 0.00 | 0.00 | 0.00 | 64 | 1011.6 |
| 20260904180004 | 73 | 269 | 0.0 | 4.0 | 0.00 | 0.00 | 0.00 | 64 | 1011.7 |
| 20260904174502 | 74 | 196 | 0.0 | 2.0 | 0.00 | 0.00 | 0.00 | 63 | 1011.7 |
| 20260904173106 | 73 | 97 | 0.0 | 2.0 | 0.00 | 0.00 | 0.00 | 66 | 1011.6 |
| 20260904171555 | 71 | 299 | 0.0 | 4.0 | 0.00 | 0.00 | 0.00 | 69 | 1011.4 |
| 20260904170051 | 69 | 200 | 0.0 | 1.0 | 0.00 | 0.00 | 0.00 | 73 | 1011.4 |